KG7QQL Weather Reports


time (UTC)temp
C
wind
direction
speed
KPH
gust
KPH
rain 1hr
cm
rain 24hr
cm
rain mn
cm
humidity
%
barometer
mb
20260504001452 25 332 6.4 17.7 0.00 0.00 0.00 41
20260504000948 25 304 8.0 17.7 0.00 0.00 0.00 41
20260504000445 24 344 3.2 12.9 0.00 0.00 0.00 43
20260503235943 24 305 6.4 16.1 0.00 0.00 0.00 44
20260503235440 24 289 4.8 20.9 0.00 0.00 0.00 43
20260503234937 24 317 4.8 12.9 0.00 0.00 0.00 44
20260503234435 24 342 3.2 14.5 0.00 0.00 0.00 45
20260503233933 23 320 1.6 22.5 0.00 0.00 0.00 46
20260503233429 23 312 6.4 29.0 0.00 0.00 0.00 45
20260503232926 23 292 8.0 16.1 0.00 0.00 0.00 44
20260503232422 23 333 4.8 19.3 0.00 0.00 0.00 46
20260503231920 23 315 6.4 24.1 0.00 0.00 0.00 46
20260503231418 23 359 3.2 20.9 0.00 0.00 0.00 46
20260503230914 23 276 6.4 14.5 0.00 0.00 0.00 44
20260503230410 24 264 4.8 11.3 0.00 0.00 0.00 45
20260503225908 23 272 4.8 24.1 0.00 0.00 0.00 45
20260503225404 24 296 8.0 14.5 0.00 0.00 0.00 45
20260503224900 23 335 8.0 16.1 0.00 0.00 0.00 44
20260503224357 24 301 8.0 16.1 0.00 0.00 0.00 43
20260503223855 23 324 4.8 19.3 0.00 0.00 0.00 44
20260503223353 23 297 6.4 17.7 0.00 0.00 0.00 43
20260503222848 23 282 4.8 20.9 0.00 0.00 0.00 45
20260503222347 23 22 4.8 16.1 0.00 0.00 0.00 43
20260503221845 23 352 4.8 22.5 0.00 0.00 0.00 46
20260503221343 23 353 8.0 17.7 0.00 0.00 0.00 43
20260503220838 23 337 4.8 17.7 0.00 0.00 0.00 42
20260503220336 23 356 4.8 20.9 0.00 0.00 0.00 43
20260503215833 23 275 3.2 22.5 0.00 0.00 0.00 44
20260503215330 23 307 9.7 16.1 0.00 0.00 0.00 45
20260503214827 23 322 6.4 22.5 0.00 0.00 0.00 47
20260503214325 23 338 3.2 22.5 0.00 0.00 0.00 50
20260503213822 23 329 3.2 17.7 0.00 0.00 0.00 49
20260503213319 22 331 6.4 19.3 0.00 0.00 0.00 49
20260503212816 22 317 3.2 16.1 0.00 0.00 0.00 51
20260503212314 22 314 9.7 16.1 0.00 0.00 0.00 53
20260503211811 22 298 8.0 19.3 0.00 0.00 0.00 52
20260503211308 23 317 6.4 16.1 0.00 0.00 0.00 49
20260503210808 23 292 9.7 12.9 0.00 0.00 0.00 48
20260503210306 23 129 0.0 17.7 0.00 0.00 0.00 47
20260503205800 23 298 4.8 14.5 0.00 0.00 0.00 46
20260503205257 23 341 4.8 9.7 0.00 0.00 0.00 49
20260503204754 23 318 4.8 8.0 0.00 0.00 0.00 47
20260503204251 23 276 3.2 14.5 0.00 0.00 0.00 47
20260503203749 23 346 4.8 11.3 0.00 0.00 0.00 47
20260503203246 22 313 6.4 17.7 0.00 0.00 0.00 48
20260503202743 22 325 4.8 19.3 0.00 0.00 0.00 48
20260503202241 22 346 4.8 17.7 0.00 0.00 0.00 51
20260503201738 22 314 14.5 17.7 0.00 0.00 0.00 48
20260503201236 22 342 4.8 19.3 0.00 0.00 0.00 48
20260503200732 22 287 3.2 17.7 0.00 0.00 0.00 48
20260503200228 22 282 6.4 19.3 0.00 0.00 0.00 49
20260503195725 22 348 4.8 17.7 0.00 0.00 0.00 50
20260503195222 22 321 4.8 14.5 0.00 0.00 0.00 49
20260503194720 22 304 4.8 17.7 0.00 0.00 0.00 51
20260503194215 22 294 9.7 17.7 0.00 0.00 0.00 53
20260503193712 21 338 0.0 16.1 0.00 0.00 0.00 55
20260503193208 22 310 1.6 11.3 0.00 0.00 0.00 54
20260503192704 22 342 6.4 14.5 0.00 0.00 0.00 54
20260503192159 22 339 4.8 16.1 0.00 0.00 0.00 53
20260503191656 22 333 4.8 16.1 0.00 0.00 0.00 54
20260503191153 22 359 3.2 17.7 0.00 0.00 0.00 54
20260503190650 21 309 4.8 17.7 0.00 0.00 0.00 55
20260503190147 21 315 3.2 12.9 0.00 0.00 0.00 56
20260503185643 21 288 6.4 11.3 0.00 0.00 0.00 58
20260503185139 21 298 8.0 17.7 0.00 0.00 0.00 59
20260503184634 21 242 4.8 8.0 0.00 0.00 0.00 60
20260503184130 20 253 3.2 8.0 0.00 0.00 0.00 61
20260503183627 20 274 4.8 11.3 0.00 0.00 0.00 62
20260503183124 20 250 0.0 8.0 0.00 0.00 0.00 64
20260503182623 19 318 4.8 11.3 0.00 0.00 0.00 65
20260503182121 19 333 8.0 14.5 0.00 0.00 0.00 65
20260503181617 18 280 4.8 11.3 0.00 0.00 0.00 66
20260503181114 18 307 4.8 16.1 0.00 0.00 0.00 68
20260503180611 18 304 11.3 14.5 0.00 0.00 0.00 66
20260503180109 18 320 4.8 11.3 0.00 0.00 0.00 67
20260503175605 18 302 6.4 12.9 0.00 0.00 0.00 67
20260503175103 17 304 8.0 16.1 0.00 0.00 0.00 69
20260503174559 18 301 4.8 8.0 0.00 0.00 0.00 68
20260503174056 18 248 8.0 14.5 0.00 0.00 0.00 68
20260503173551 17 301 6.4 14.5 0.00 0.00 0.00 69
20260503173048 18 295 8.0 14.5 0.00 0.00 0.00 68
20260503172545 18 316 8.0 17.7 0.00 0.00 0.00 68
20260503172042 18 339 4.8 12.9 0.00 0.00 0.00 69
20260503171539 18 307 4.8 12.9 0.00 0.00 0.00 68
20260503171036 17 350 6.4 14.5 0.00 0.00 0.00 70
20260503170532 17 1 3.2 17.7 0.00 0.00 0.00 70
20260503150925 16 274 3.2 9.7 0.00 0.00 0.00 73
20260503150421 16 344 3.2 9.7 0.00 0.00 0.00 73
20260503131314 11 99 4.8 4.8 0.00 0.00 0.00 88
20260503130812 11 65 3.2 4.8 0.00 0.00 0.00 88
20260503130309 11 61 3.2 4.8 0.00 0.00 0.00 87
20260503110703 12 37 1.6 3.2 0.00 0.00 0.00 83
20260503110200 12 17 0.0 3.2 0.00 0.00 0.00 82
20260503100126 12 57 1.6 3.2 0.00 0.00 0.00 82
20260503081516 14 87 0.0 3.2 0.00 0.00 0.00 69
20260503081013 14 67 0.0 3.2 0.00 0.00 0.00 70
20260503080509 14 52 3.2 4.8 0.00 0.00 0.00 71
20260503072443 15 56 1.6 3.2 0.00 0.00 0.00 70
20260503071940 14 72 3.2 4.8 0.00 0.00 0.00 74
20260503071437 13 62 1.6 3.2 0.00 0.00 0.00 74
20260503070933 13 76 0.0 3.2 0.00 0.00 0.00 73
20260503070430 14 73 1.6 3.2 0.00 0.00 0.00 72
20260503054844 16 98 1.6 4.8 0.00 0.00 0.00 58
20260503054339 16 93 1.6 4.8 0.00 0.00 0.00 62
20260503053837 16 89 0.0 3.2 0.00 0.00 0.00 62
20260503053336 17 88 1.6 3.2 0.00 0.00 0.00 59
20260503052832 17 217 0.0 1.6 0.00 0.00 0.00 57
20260503052329 17 76 1.6 3.2 0.00 0.00 0.00 56
20260503051825 17 89 0.0 3.2 0.00 0.00 0.00 57
20260503051321 17 94 1.6 4.8 0.00 0.00 0.00 56
20260503050818 17 78 0.0 3.2 0.00 0.00 0.00 56
20260503050314 17 47 3.2 6.4 0.00 0.00 0.00 57
20260503045812 16 71 0.0 3.2 0.00 0.00 0.00 59
20260503045310 17 108 0.0 3.2 0.00 0.00 0.00 62
20260503044806 17 23 0.0 3.2 0.00 0.00 0.00 57
20260503044303 17 132 0.0 3.2 0.00 0.00 0.00 55
20260503043800 17 83 3.2 4.8 0.00 0.00 0.00 57
20260503043257 17 101 0.0 4.8 0.00 0.00 0.00 63
20260503042753 17 255 1.6 3.2 0.00 0.00 0.00 60
20260503042250 17 74 0.0 4.8 0.00 0.00 0.00 58
20260503041745 17 261 1.6 4.8 0.00 0.00 0.00 60
20260503041244 17 334 3.2 3.2 0.00 0.00 0.00 61
20260503040741 18 201 0.0 4.8 0.00 0.00 0.00 61
20260503040239 18 301 3.2 6.4 0.00 0.00 0.00 53
20260503035735 18 312 4.8 12.9 0.00 0.00 0.00 53
20260503035233 18 311 1.6 8.0 0.00 0.00 0.00 53
20260503034730 18 14 3.2 12.9 0.00 0.00 0.00 53
20260503034227 18 300 3.2 9.7 0.00 0.00 0.00 54
20260503033724 18 356 1.6 11.3 0.00 0.00 0.00 54
20260503033221 18 333 6.4 8.0 0.00 0.00 0.00 56
20260503032720 18 295 9.7 11.3 0.00 0.00 0.00 56
20260503032218 18 309 1.6 12.9 0.00 0.00 0.00 57
20260503031714 18 312 4.8 9.7 0.00 0.00 0.00 57
20260503031208 18 14 1.6 6.4 0.00 0.00 0.00 57
20260503030703 18 332 4.8 8.0 0.00 0.00 0.00 56
20260503030200 19 39 3.2 9.7 0.00 0.00 0.00 56
20260503025657 19 318 3.2 16.1 0.00 0.00 0.00 57
20260503025155 19 308 6.4 14.5 0.00 0.00 0.00 57
20260503024651 19 322 6.4 11.3 0.00 0.00 0.00 58
20260503024148 18 282 3.2 6.4 0.00 0.00 0.00 58
20260503023645 18 276 4.8 14.5 0.00 0.00 0.00 58
20260503023142 19 308 8.0 14.5 0.00 0.00 0.00 58
20260503022638 19 294 11.3 20.9 0.00 0.00 0.00 57
20260503022137 19 305 6.4 16.1 0.00 0.00 0.00 57
20260503021635 20 331 4.8 8.0 0.00 0.00 0.00 56
20260503021131 20 307 11.3 24.1 0.00 0.00 0.00 56
20260503020628 20 316 3.2 22.5 0.00 0.00 0.00 56
20260503020126 19 305 12.9 17.7 0.00 0.00 0.00 57
20260503015622 18 318 14.5 22.5 0.00 0.00 0.00 61
20260503015120 18 329 3.2 11.3 0.00 0.00 0.00 62
20260503014615 20 239 1.6 11.3 0.00 0.00 0.00 59
20260503014113 20 299 8.0 16.1 0.00 0.00 0.00 57
20260503013610 20 299 11.3 16.1 0.00 0.00 0.00 57
20260503013108 20 323 9.7 25.7 0.00 0.00 0.00 56
20260503012605 21 317 9.7 19.3 0.00 0.00 0.00 51
20260503012102 21 316 6.4 20.9 0.00 0.00 0.00 51
20260503011558 21 301 8.0 12.9 0.00 0.00 0.00 51
20260503011056 21 311 9.7 24.1 0.00 0.00 0.00 51
20260503010551 20 294 9.7 16.1 0.00 0.00 0.00 52
20260503010050 20 315 6.4 20.9 0.00 0.00 0.00 51
20260503005546 21 320 8.0 24.1 0.00 0.00 0.00 51
20260503005044 21 315 8.0 32.2 0.00 0.00 0.00 49
20260503004539 21 55 3.2 17.7 0.00 0.00 0.00 49
20260503004038 21 12 6.4 20.9 0.00 0.00 0.00 49
20260503003534 21 327 8.0 25.7 0.00 0.00 0.00 49
20260503003032 21 1 9.7 20.9 0.00 0.00 0.00 50
20260503002528 21 12 6.4 27.4 0.00 0.00 0.00 51
20260503002025 21 137 3.2 22.5 0.00 0.00 0.00 49